[[{"header":{"parameterUnit":"m.s-1","parameterCategory":1,"la1":30.2991,"la2":30.254,"lo1":-89.0895,"lo2":-89.0444,"dy":0.0017,"dx":0.0017,"nx":28,"ny":28,"refTime":"2024-09-04T03:00:00:Z","depth":0,"parameterNumber":2,"parameterNumberName":"U-component_of_WINDS"},"data":[0,0,0,0,0,0,0,0,0,0,0,0,0,0,0,0,0,0,0,0,0,0,0,0,0,0,0,0,0,0,0,0,0,0,0,0,0,0,0,0,0,0,0,0,0,0,0,0,0,0,0,0,0,0,0,0,0,0,-2.1825,-2.1826,0,-2.1918,-2.1919,-2.192,-2.1928,-2.1927,-2.1926,-2.1925,-2.2024,-2.2028,-2.2031,0,0,0,0,0,0,0,0,0,0,0,0,0,-2.1661,-2.1664,-2.1825,-2.1826,-2.1827,-2.1918,-2.1919,-2.192,-2.1928,-2.1927,-2.1925,-2.1924,-2.2023,-2.2027,-2.2032,0,0,0,0,0,0,0,0,0,0,0,0,0,-2.1741,-2.1665,-2.1825,-2.1842,-2.1844,-2.1918,-2.1919,-2.1921,-2.1928,-2.1927,-2.1925,-2.1924,-2.2022,-2.2027,-2.2032,-2.2096,0,0,-2.2049,-2.2051,0,0,0,0,0,0,0,0,-2.1736,-2.1747,-2.1838,-2.1841,-2.1843,-2.191,-2.1898,-2.198,-2.1928,-2.1896,-2.1925,-2.1923,-2.1988,-2.1996,-2.2017,-2.2101,-2.2105,-2.2049,-2.2052,-2.2055,-2.2056,0,0,0,0,0,0,0,-2.1731,-2.1743,-2.1862,-2.1839,-2.1843,-2.1847,-2.1857,-2.1913,-2.195,-2.1899,-2.19,-2.1911,-2.1989,-2.2011,-2.2019,-2.2107,-2.2049,-2.2054,-2.2057,-2.2059,-2.2254,-2.2256,0,0,0,0,0,0,-2.1721,-2.1738,-2.1859,-2.1865,-2.1785,-2.1851,-2.1862,-2.189,-2.1949,-2.1956,-2.1912,-2.191,-2.2003,-2.2013,-2.2023,-2.2104,-2.2055,-2.206,-2.2063,-2.2252,-2.2255,-2.2257,0,0,0,0,0,0,-2.1718,-2.1732,-2.1855,-2.1802,-2.1818,-2.1856,-2.1887,-2.1893,-2.1915,-2.1958,-2.1966,-2.1928,-2.2002,-2.2015,-2.2079,-2.2108,-2.2062,-2.2067,-2.225,-2.2253,-2.2256,-2.2266,0,0,0,0,0,0,-2.1713,-2.173,-2.1753,-2.1802,-2.1821,-2.1907,-2.1889,-2.1896,-2.1924,-2.1923,-2.1975,-2.1982,-2.2002,-2.2071,-2.2084,-2.2114,-2.2071,-2.2248,-2.2251,-2.2255,-2.2263,-2.2269,-2.2274,0,0,0,0,0,-2.1707,-2.1752,-2.1754,-2.1768,-2.1849,-2.1909,-2.1919,-2.194,-2.1926,-2.1951,-2.198,-2.1981,-2.2103,-2.2077,-2.2092,-2.2125,-2.2246,-2.225,-2.2255,-2.2261,-2.2268,-2.2274,0,0,0,0,0,0,-2.1705,-2.1758,-2.1761,-2.1823,-2.1861,-2.191,-2.194,-2.1946,-2.1989,-2.1987,-2.2012,-2.2024,-2.2088,-2.2113,-2.2083,-2.2193,-2.2173,-2.2181,-2.2173,-2.218,-2.2185,-2.2177,-2.2076,0,0,0,0,0,-2.1712,-2.1753,-2.1799,-2.1849,-2.1869,-2.1902,-2.1928,-2.1941,-2.1982,-2.1999,-2.2032,-2.2073,-2.2122,-2.2152,-2.2199,-2.2268,-2.2282,-2.2299,-2.2304,-2.2308,-2.2314,-2.2357,-2.2365,-2.2271,-2.2271,-2.2271,0,0,-2.1726,-2.176,-2.1785,-2.185,-2.1881,-2.1927,-2.1915,-2.1962,-2.1998,-2.2006,-2.2068,-2.2095,-2.2144,-2.2212,-2.2243,-2.2235,-2.2344,-2.2314,-2.2316,-2.232,-2.2362,-2.2371,-2.2379,-2.2274,-2.2273,-2.2273,0,0,-2.1775,-2.1804,-2.1851,-2.1883,-2.1931,-2.1954,-2.1965,-2.2014,-2.2032,-2.2095,-2.2104,-2.2148,-2.2229,-2.2265,-2.2293,-2.2363,-2.2367,-2.2378,-2.2404,-2.2446,-2.2453,-2.246,-2.2487,-2.2496,-2.2384,-2.2384,-2.2384,0,-2.1786,-2.1853,-2.1874,-2.1923,-2.1953,-2.1964,-2.2014,-2.2045,-2.2106,-2.2127,-2.2117,-2.2223,-2.2256,-2.2334,-2.2351,-2.2374,-2.239,-2.237,-2.245,-2.2457,-2.2464,-2.249,-2.2499,-2.2385,-2.2385,-2.2384,-2.2384,0,-2.1867,-2.1914,-2.1946,-2.2005,-2.2039,-2.2088,-2.212,-2.2152,-2.2164,-2.2189,-2.2256,-2.2297,-2.2354,-2.2374,-2.2385,-2.2456,-2.2449,-2.2444,-2.2425,-2.2473,-2.2498,-2.2508,-2.2386,-2.2386,-2.2385,-2.2385,0,0,-2.1912,-2.1986,-2.1998,-2.2026,-2.2083,-2.212,-2.2173,-2.2228,-2.2256,-2.23,-2.2346,-2.2418,-2.2415,-2.2448,-2.2464,-2.2501,-2.2557,-2.2492,-2.2494,-2.2503,-2.264,-2.2643,-2.2654,-2.2561,-2.2563,-2.2564,-2.2636,0,-2.1968,-2.2058,-2.2082,-2.216,-2.2206,-2.222,-2.2266,-2.2307,-2.2334,-2.2379,-2.2409,-2.246,-2.2451,-2.2472,-2.2508,-2.2542,-2.2584,-2.2537,-2.2606,-2.2608,-2.2592,-2.2666,-2.2669,-2.2734,-2.2646,-2.2648,-2.2649,0,-2.2044,-2.209,-2.2172,-2.2227,-2.2247,-2.2287,-2.2342,-2.2384,-2.2434,-2.2451,-2.249,-2.2505,-2.2563,-2.2543,-2.2626,-2.2593,-2.2624,-2.2645,-2.2649,-2.2655,-2.263,-2.2675,-2.2756,-2.2766,-2.2664,-2.2663,-2.2662,0,-2.2072,-2.2154,-2.2215,-2.2239,-2.2303,-2.2332,-2.2361,-2.2408,-2.2442,-2.2491,-2.2514,-2.257,-2.2601,-2.2646,-2.2676,-2.2658,-2.2758,-2.2739,-2.2776,-2.2775,-2.2795,-2.2793,-2.2881,-2.2815,-2.2815,-2.2814,-2.2814,0,-2.2131,-2.2181,-2.2228,-2.2265,-2.2324,-2.2353,-2.2411,-2.2441,-2.2484,-2.253,-2.2547,-2.259,-2.2628,-2.2678,-2.2703,-2.277,-2.2783,-2.2801,-2.2807,-2.2799,-2.2797,-2.2818,-2.2815,-2.2817,-2.2817,-2.2816,-2.2816,0,-2.217,-2.2203,-2.2271,-2.2328,-2.2344,-2.2384,-2.2435,-2.2473,-2.2502,-2.2561,-2.2576,-2.2622,-2.2682,-2.2718,-2.2793,-2.2811,-2.2885,-2.2889,-2.2867,-2.287,-2.2905,-2.2902,-2.301,-2.3027,-2.2949,-2.2949,-2.295,0,-2.2206,-2.2245,-2.2307,-2.2339,-2.2368,-2.2418,-2.2453,-2.2485,-2.2521,-2.2584,-2.2616,-2.2677,-2.2727,-2.2823,-2.2864,-2.2924,-2.293,-2.2964,-2.2939,-2.2931,-2.2932,-2.2929,-2.2934,-2.2968,-2.2968,-2.2969,-2.2969,0,-2.2266,-2.2282,-2.233,-2.2386,-2.2427,-2.2473,-2.2518,-2.2544,-2.2585,-2.2625,-2.2686,-2.2726,-2.2804,-2.2866,-2.293,-2.2963,-2.2974,-2.2978,-2.2989,-2.2981,-2.2968,-2.2977,-2.2879,-2.2974,-2.2974,-2.2973,-2.2973,-2.2973,-2.2305,-2.2342,-2.2393,-2.2448,-2.2486,-2.2529,-2.257,-2.2605,-2.2656,-2.2721,-2.2738,-2.2803,-2.2858,-2.2944,-2.2979,-2.3033,-2.3028,-2.3044,-2.3049,-2.3052,-2.3054,-2.296,-2.3045,-2.3045,-2.3045,-2.3045,-2.3045,0,-2.2368,-2.2402,-2.2452,-2.2516,-2.2561,-2.2568,-2.262,-2.2657,-2.2714,-2.2763,-2.2812,-2.2885,-2.2947,-2.2995,-2.3058,-2.3093,-2.31,-2.3108,-2.3106,-2.3114,-2.3054,-2.3038,-2.3102,-2.3102,-2.3102,-2.3101,-2.3101,-2.3101,-2.2405,-2.2469,-2.2492,-2.2577,-2.2611,-2.2674,-2.2704,-2.2746,-2.2785,-2.2865,-2.2916,-2.2947,-2.2997,-2.3065,-2.3123,-2.3136,-2.3159,-2.3167,-2.3181,-2.3124,-2.3118,-2.3112,-2.3097,-2.3172,-2.3172,-2.3237,-2.3237,-2.3238]},{"header":{"parameterUnit":"m.s-1","parameterCategory":1,"la1":30.2991,"la2":30.254,"lo1":-89.0895,"lo2":-89.0444,"dy":0.0017,"dx":0.0017,"nx":28,"ny":28,"refTime":"2024-09-04T03:00:00:Z","depth":0,"parameterNumber":3,"parameterNumberName":"V-component_of_WINDS"},"data":[0,0,0,0,0,0,0,0,0,0,0,0,0,0,0,0,0,0,0,0,0,0,0,0,0,0,0,0,0,0,0,0,0,0,0,0,0,0,0,0,0,0,0,0,0,0,0,0,0,0,0,0,0,0,0,0,0,0,3.2393,3.2393,0,3.2332,3.2331,3.2331,3.234,3.2341,3.2342,3.2343,3.2274,3.2272,3.2269,0,0,0,0,0,0,0,0,0,0,0,0,0,3.2514,3.2511,3.2393,3.2393,3.2392,3.2332,3.2331,3.2331,3.234,3.2341,3.2343,3.2344,3.2275,3.2272,3.2268,0,0,0,0,0,0,0,0,0,0,0,0,0,3.2458,3.2511,3.2394,3.239,3.2389,3.2332,3.2331,3.233,3.234,3.2341,3.2343,3.2344,3.2276,3.2272,3.2268,3.221,0,0,3.2255,3.2253,0,0,0,0,0,0,0,0,3.2461,3.2453,3.2391,3.239,3.2389,3.2346,3.2348,3.229,3.2339,3.2358,3.2343,3.2345,3.2296,3.229,3.2275,3.2207,3.2204,3.2255,3.2252,3.225,3.2249,0,0,0,0,0,0,0,3.2465,3.2456,3.2369,3.239,3.2389,3.2389,3.2383,3.2337,3.2319,3.2357,3.2357,3.235,3.2296,3.2279,3.2274,3.2203,3.2255,3.2251,3.2248,3.2247,3.2083,3.2081,0,0,0,0,0,0,3.247,3.2459,3.2371,3.2367,3.243,3.2386,3.2379,3.2358,3.2319,3.2315,3.2349,3.2351,3.2286,3.2279,3.2271,3.22,3.225,3.2246,3.2244,3.2085,3.2083,3.2081,0,0,0,0,0,0,3.2473,3.2463,3.2373,3.2413,3.2402,3.2382,3.2358,3.2356,3.2339,3.2314,3.231,3.2336,3.2287,3.2277,3.2225,3.2198,3.2244,3.2241,3.2087,3.2084,3.2082,3.2057,0,0,0,0,0,0,3.2476,3.2463,3.2442,3.2413,3.24,3.233,3.2356,3.2353,3.2332,3.2334,3.23,3.2296,3.2287,3.2232,3.2221,3.2193,3.2237,3.2089,3.2086,3.2083,3.206,3.2054,3.2048,0,0,0,0,0,3.2481,3.2436,3.2441,3.243,3.2373,3.2328,3.232,3.2313,3.233,3.2308,3.2292,3.2297,3.2203,3.2226,3.2215,3.2184,3.2091,3.2087,3.2083,3.2063,3.2055,3.2048,0,0,0,0,0,0,3.2459,3.2432,3.2437,3.2382,3.2358,3.233,3.2301,3.2305,3.2274,3.2277,3.2268,3.226,3.2207,3.2191,3.2217,3.2126,3.2149,3.2143,3.2138,3.213,3.2125,3.2128,3.2234,0,0,0,0,0,3.2449,3.2417,3.2394,3.2347,3.2335,3.2321,3.2301,3.2298,3.2271,3.226,3.224,3.2213,3.2177,3.2153,3.2119,3.2059,3.2051,3.2033,3.2027,3.2022,3.2015,3.1981,3.1973,3.2067,3.2067,3.2068,0,0,3.2426,3.2407,3.2386,3.2343,3.2324,3.2288,3.2311,3.2273,3.2247,3.2254,3.2203,3.2188,3.2157,3.2101,3.2075,3.2086,3.1988,3.2017,3.2013,3.2009,3.1976,3.1967,3.1959,3.2065,3.2065,3.2066,0,0,3.2365,3.2349,3.2308,3.2289,3.2261,3.2252,3.2242,3.2214,3.2205,3.2155,3.216,3.2128,3.2067,3.2044,3.2025,3.1958,3.1961,3.1948,3.1915,3.1882,3.1875,3.1868,3.1842,3.1834,3.1942,3.1942,3.1942,0,3.2338,3.2288,3.2286,3.2247,3.2227,3.2236,3.2193,3.2175,3.2136,3.2121,3.2135,3.2059,3.2039,3.1977,3.1961,3.1946,3.1933,3.195,3.1877,3.187,3.1863,3.1839,3.1829,3.194,3.194,3.194,3.1941,0,3.2256,3.2221,3.2191,3.2156,3.2133,3.2093,3.2083,3.206,3.206,3.205,3.1999,3.1975,3.1936,3.1922,3.1921,3.186,3.1868,3.1879,3.1901,3.1853,3.1829,3.182,3.1938,3.1938,3.1939,3.1939,0,0,3.2176,3.2143,3.2132,3.2116,3.2087,3.2058,3.2019,3.1983,3.1963,3.1937,3.1902,3.1852,3.1863,3.1841,3.1837,3.1809,3.1756,3.1824,3.1823,3.181,3.1686,3.1675,3.1664,3.176,3.1758,3.1757,3.1688,0,3.2111,3.2042,3.204,3.1977,3.1944,3.1953,3.1918,3.1895,3.1885,3.1854,3.1842,3.1806,3.1824,3.1811,3.1784,3.1768,3.173,3.1774,3.1724,3.1723,3.1729,3.1652,3.164,3.1576,3.1679,3.1677,3.1676,0,3.2024,3.1997,3.1931,3.1908,3.1894,3.1863,3.183,3.1802,3.1776,3.1771,3.1748,3.1749,3.1707,3.1734,3.1675,3.1705,3.1685,3.1675,3.1672,3.1664,3.1694,3.1639,3.1555,3.1545,3.1662,3.1663,3.1664,0,3.1969,3.1917,3.1871,3.1858,3.183,3.1807,3.1794,3.1771,3.175,3.1722,3.1708,3.1674,3.1655,3.1628,3.162,3.1641,3.1561,3.1587,3.1552,3.1552,3.1532,3.1532,3.144,3.1525,3.1525,3.1525,3.1525,0,3.1894,3.1853,3.1846,3.1817,3.1771,3.177,3.1723,3.1712,3.1691,3.1659,3.1666,3.1635,3.1628,3.1595,3.1589,3.154,3.1532,3.1524,3.1522,3.1521,3.1522,3.1506,3.1508,3.1522,3.1523,3.1524,3.1524,0,3.1823,3.1818,3.1768,3.1747,3.1741,3.1707,3.1688,3.166,3.1652,3.1611,3.1601,3.1588,3.155,3.1541,3.1495,3.1491,3.1432,3.1436,3.1441,3.144,3.1405,3.1407,3.1296,3.128,3.1378,3.1377,3.1376,0,3.1774,3.1743,3.1719,3.17,3.1686,3.1654,3.1633,3.1631,3.1609,3.158,3.1554,3.1518,3.1489,3.1428,3.1413,3.1378,3.1379,3.1343,3.1373,3.1374,3.1375,3.1376,3.1372,3.1335,3.1334,3.1333,3.1333,0,3.1686,3.1686,3.1657,3.1627,3.1604,3.158,3.1557,3.154,3.1535,3.1509,3.1472,3.145,3.1405,3.1368,3.1334,3.1319,3.1323,3.1324,3.1314,3.1311,3.1314,3.1309,3.1422,3.1325,3.1326,3.1327,3.1327,3.1327,3.1622,3.1595,3.1575,3.1542,3.1526,3.1505,3.1478,3.1468,3.1437,3.1402,3.1403,3.1362,3.1338,3.1293,3.1276,3.1243,3.1253,3.1239,3.1235,3.123,3.1226,3.1323,3.1237,3.1237,3.1237,3.1237,3.1238,0,3.1532,3.1521,3.1492,3.1461,3.1436,3.1447,3.1423,3.14,3.1365,3.1344,3.1316,3.1273,3.1238,3.1221,3.1186,3.1163,3.1164,3.1153,3.1153,3.1149,3.1219,3.1231,3.1153,3.1153,3.1153,3.1153,3.1153,3.1153,3.1482,3.1436,3.1434,3.138,3.1368,3.1329,3.1314,3.1295,3.1278,3.1231,3.1202,3.1193,3.1173,3.1138,3.1106,3.1102,3.1087,3.1074,3.1071,3.1136,3.1144,3.1152,3.1163,3.1072,3.1072,3.1003,3.1002,3.1002]}]]